{"data":{"norad_id":61608,"epoch":"2026-05-25T03:07:56.751744Z","epoch_age_seconds":63465,"freshness":"FRESH","line1":"1 61608U 24188Q   26145.13051796  .00000308  00000+0  83407-3 0  9999","line2":"2 61608  87.8925  25.5706 0000949 108.4230 251.7001 13.11415169 81464","mean_motion":13.11415169,"eccentricity":9.49e-5,"inclination_deg":87.8925,"raan_deg":25.5706,"arg_perigee_deg":108.423,"mean_anomaly_deg":251.7001,"bstar":0.00083407,"rev_number":8146,"period_min":109.80504374508,"perigee_km":1216.968712253,"apogee_km":1218.4104001334,"semimajor_km":7595.8265561932,"source":"CELESTRAK","updated_at":"2026-05-25T13:38:22.750936Z"}}